Theta_e
307 307 303 303 303 308 304 307 308 308 308 310 310 310 311 313 312 311 310 311 313 315 315 313 313 313 315 316 317 317 318 320 323 323 323 324 322 323 323 323 323 324 325 324 323 319 316 314 316 319 320 320 320 322 323 324 323 323 322 323 325 326 326
307 305 306 309 306 308 305 307 307 307 307 308 309 311 310 312 314 310 309 310 311 312 314 312 312 313 313 313 314 315 315 316 318 322 322 321 323 322 323 323 325 324 324 323 321 322 318 316 316 317 317 318 318 320 322 323 323 323 323 323 324 325 326
306 305 305 306 305 304 305 305 305 306 307 308 307 308 309 309 309 310 309 309 309 311 312 309 310 311 311 312 312 313 314 314 315 317 317 319 321 321 322 322 321 322 322 322 323 323 322 320 316 317 316 316 316 317 318 320 322 322 322 322 323 323 324
305 305 304 303 304 303 304 303 304 305 307 308 308 307 308 309 309 310 308 308 309 312 310 308 308 309 309 309 310 311 311 311 312 313 313 314 316 316 317 319 319 320 319 318 317 319 319 318 318 318 319 320 319 319 322 322 322 324 324 322 321 322 323
305 305 305 305 305 305 303 304 303 306 307 307 307 306 306 307 307 306 307 306 308 306 306 307 307 307 308 308 308 310 309 310 311 311 311 310 311 312 313 315 317 319 318 319 321 322 320 320 319 318 319 319 319 320 322 322 324 324 324 323 322 321 322
306 305 305 305 305 305 304 304 303 305 304 307 306 306 307 306 306 305 305 305 306 308 307 307 306 307 306 306 307 307 307 308 308 308 308 308 309 310 310 312 314 315 317 320 322 322 323 322 320 318 319 321 318 318 320 320 320 323 324 324 324 323 322
306 306 304 305 305 305 305 305 306 306 305 307 305 305 306 305 305 307 306 304 304 305 306 305 305 305 306 307 306 306 306 306 306 307 307 307 308 308 309 309 311 312 314 316 318 320 320 320 319 318 317 319 319 318 319 317 320 320 321 323 325 325 323
307 306 305 306 305 305 305 305 305 304 305 306 305 305 306 304 305 304 304 303 304 304 304 303 305 304 304 306 306 305 306 306 305 306 305 305 306 306 306 307 309 310 311 312 314 316 319 319 319 320 318 314 316 318 317 319 318 318 320 323 324 324 324
309 307 306 307 305 305 306 305 305 304 305 305 304 305 305 304 304 305 304 303 303 303 303 303 302 303 303 303 302 302 302 307 304 303 303 303 304 304 304 305 305 306 308 310 311 311 313 314 316 318 320 317 314 312 315 314 315 317 322 321 321 324 325
307 306 305 305 305 304 306 305 305 305 304 304 305 305 304 303 303 303 303 303 302 302 302 303 303 302 301 301 301 301 300 302 303 302 302 302 302 303 303 303 303 304 305 307 307 308 308 310 313 315 318 317 317 313 312 311 311 312 316 321 318 319 324
307 306 306 305 306 305 304 305 303 304 304 305 307 308 304 303 303 308 302 301 301 301 301 301 300 300 300 300 300 300 301 301 301 301 302 302 301 302 302 302 302 301 303 304 304 305 306 308 309 310 312 315 317 315 315 312 312 314 314 315 320 319 319
307 306 306 306 306 305 304 304 304 304 303 305 308 306 304 303 303 301 301 300 300 300 300 300 301 299 299 299 301 300 300 300 300 300 300 302 302 302 300 300 300 301 301 302 302 302 304 306 306 308 309 311 313 314 314 314 312 317 318 316 317 321 321
307 307 306 306 305 305 305 305 304 303 304 307 305 305 304 304 303 301 300 300 299 299 299 299 298 298 298 299 298 300 300 299 300 299 300 300 302 301 299 299 300 300 300 301 301 301 302 303 304 305 306 307 309 312 314 313 311 312 319 319 319 318 319
306 306 305 306 305 305 305 306 305 305 305 304 304 303 303 302 301 301 300 301 299 299 299 298 297 297 297 297 298 298 298 299 299 299 301 300 300 300 300 299 299 300 300 300 300 301 301 302 302 303 304 306 306 308 310 310 309 310 316 321 319 319 320
307 306 305 305 305 304 304 305 304 305 304 303 303 302 302 300 299 299 299 299 298 298 298 297 297 297 298 297 296 299 299 297 298 298 298 299 299 300 300 299 299 299 300 300 300 300 300 300 301 301 302 303 304 305 309 309 309 309 309 316 317 320 319
306 305 305 304 304 304 304 303 305 304 303 302 301 302 301 300 299 298 298 296 296 296 297 297 297 297 297 297 296 296 298 297 297 298 298 298 298 299 298 299 299 299 301 300 300 300 300 300 301 300 301 302 302 303 305 308 308 308 309 310 315 317 319
306 305 304 304 303 303 303 303 304 303 302 301 301 299 300 299 299 298 298 296 296 296 296 297 297 296 297 296 296 296 296 296 297 297 298 298 298 298 299 299 299 299 300 299 299 299 300 300 300 300 300 301 301 301 303 305 308 308 310 309 312 315 317
305 304 304 303 303 303 302 303 302 302 301 300 299 300 299 298 297 297 297 296 296 295 295 295 295 295 295 295 295 295 296 296 296 297 297 298 300 300 300 300 300 300 300 299 299 299 300 299 300 300 300 300 300 301 302 303 305 309 308 306 308 313 316
303 303 304 303 303 303 303 302 302 301 301 299 297 297 298 297 298 296 296 295 295 294 294 294 294 294 294 294 295 295 295 295 296 297 297 298 299 300 300 301 301 301 300 300 300 300 300 300 300 299 299 299 300 300 300 301 303 304 305 305 306 306 310
305 304 304 304 304 303 303 302 302 301 300 299 298 297 296 297 296 296 295 295 295 294 294 294 293 293 293 293 294 294 294 295 296 296 297 298 298 298 299 300 301 301 301 301 301 300 301 300 301 300 301 301 301 300 299 299 300 301 302 303 304 305 306
306 306 305 305 305 304 303 302 301 300 300 298 297 297 296 296 295 295 295 294 294 295 293 293 292 292 293 293 294 294 294 295 295 295 295 295 296 296 296 297 297 298 298 299 300 301 301 300 301 300 301 301 301 300 299 299 298 299 299 301 302 303 304
307 306 305 304 304 303 303 302 301 300 299 298 298 296 296 296 295 294 293 294 294 295 293 293 294 294 293 293 292 293 293 293 293 293 293 294 294 295 295 296 296 296 299 301 299 299 299 299 298 297 297 298 298 297 297 297 298 297 298 298 299 302 302
305 305 305 304 304 303 302 301 300 299 298 298 297 296 295 294 294 293 293 291 291 293 293 294 298 297 297 295 294 294 294 293 293 293 293 293 293 294 294 294 297 299 299 299 298 296 295 296 297 298 297 297 297 296 296 296 296 296 296 296 297 298 298
305 305 305 304 303 303 302 301 299 298 297 297 296 296 294 293 292 293 293 291 291 292 293 294 295 293 293 294 294 293 293 293 293 293 292 292 292 293 293 294 294 296 298 298 297 296 294 294 294 294 294 295 296 296 295 295 296 296 296 296 297 297 298
305 305 305 304 303 303 302 300 298 297 296 295 295 294 293 293 293 292 291 290 289 291 292 296 292 292 293 292 294 294 292 292 292 292 292 292 292 292 293 293 293 295 295 295 295 295 295 295 294 293 293 293 293 293 294 295 295 295 296 296 296 297 298
305 304 305 304 303 302 301 300 298 296 296 296 294 293 293 292 292 291 291 290 290 291 291 294 292 293 292 292 292 292 291 291 291 291 291 292 292 292 292 293 293 293 294 297 298 295 294 294 294 294 294 294 294 293 292 292 293 296 297 296 296 296 297
305 305 304 303 302 301 300 299 298 297 296 294 293 293 292 292 291 290 290 290 289 289 289 293 292 292 292 291 291 291 290 290 290 290 291 291 291 291 292 292 292 292 292 293 293 293 293 292 292 292 293 293 293 294 293 293 293 292 294 296 296 296 297
305 305 304 303 302 300 299 297 296 296 295 294 293 292 292 291 291 291 290 287 287 287 289 292 291 291 291 291 291 291 290 290 290 290 290 290 291 291 291 292 291 291 291 291 292 293 292 292 292 292 292 292 292 292 293 294 294 295 297 298 297 297 298
302 301 301 301 300 299 297 296 295 294 293 292 292 291 290 290 290 288 288 287 286 286 286 290 290 290 290 290 290 290 289 288 288 289 289 289 290 290 291 291 291 291 291 291 293 292 293 293 291 291 290 291 291 292 292 294 294 295 296 296 297 298 300
302 302 302 301 300 297 295 294 293 293 292 292 291 290 290 290 290 289 288 287 285 284 285 289 290 290 290 290 290 289 288 288 288 288 288 289 289 290 290 290 290 290 291 291 292 291 291 291 291 290 290 290 290 291 291 293 294 293 293 293 293 293 293
302 300 300 299 297 295 294 294 293 294 292 290 290 290 289 289 288 289 288 287 286 284 285 288 290 290 290 290 290 288 288 287 287 287 287 288 288 289 290 293 294 291 291 291 291 290 290 291 290 290 289 289 289 289 290 292 293 294 294 294 293 293 293
303 303 302 300 297 295 295 295 294 293 292 291 290 289 290 288 287 287 288 287 293 289 285 287 291 290 290 290 290 288 288 287 286 286 286 287 287 288 288 290 292 292 291 291 290 290 290 290 290 290 290 290 289 288 289 290 291 291 292 293 295 296 295
302 302 300 297 297 296 295 294 293 292 290 290 289 288 289 288 287 288 287 288 288 287 285 284 287 289 290 290 290 290 288 286 286 286 286 287 287 288 288 288 290 289 289 289 289 289 289 289 290 290 290 289 288 288 291 292 292 292 292 293 294 296 296
302 301 300 297 296 295 295 294 292 291 289 287 286 286 286 286 286 286 285 284 284 283 285 285 287 289 290 290 290 289 287 287 286 286 286 287 287 287 287 288 289 290 289 289 289 289 289 289 289 290 290 289 290 291 291 291 291 292 292 292 293 293 295
301 299 297 297 296 295 294 294 293 291 289 287 286 284 283 285 285 284 284 283 283 283 287 291 286 289 289 290 289 290 288 287 288 287 287 287 287 287 287 287 288 289 289 289 288 289 289 289 289 290 289 289 289 289 290 291 291 291 291 292 292 293 294
299 298 297 297 295 294 292 292 290 289 287 285 285 284 283 283 283 283 283 284 282 283 283 285 289 288 289 289 289 289 289 288 288 289 287 286 287 287 288 288 288 289 288 288 288 288 288 288 289 289 288 288 288 288 289 289 290 290 290 290 291 291 292
298 297 296 295 295 293 291 290 289 288 286 286 284 283 284 284 282 282 284 284 284 283 283 283 286 288 288 288 288 288 288 288 288 288 288 287 287 287 287 287 288 288 288 288 288 288 288 288 288 288 288 288 288 288 289 289 288 288 288 289 289 290 291
Wind_Speed
7 7 4 3 1 1 3 1 1 1 3 1 2 3 3 3 4 4 4 4 5 4 5 6 5 3 4 3 4 3 4 5 5 4 3 4 4 3 1 2 4 3 3 2 2 2 2 4 6 3 1 2 3 5 7 7 7 6 6 7 7 7 7
4 4 3 2 3 1 4 1 1 2 3 2 2 3 3 4 3 4 4 5 5 5 5 5 5 5 6 5 7 7 6 5 5 4 4 5 5 4 4 1 2 3 3 3 3 4 4 3 6 5 6 3 1 3 4 5 4 4 6 7 7 8 7
4 3 4 4 4 2 4 2 1 1 2 3 3 2 4 3 4 4 5 5 4 4 4 4 4 6 5 5 4 4 5 5 4 4 4 3 3 3 3 3 4 4 3 2 2 3 4 6 7 7 5 6 8 4 2 3 3 4 5 5 5 5 6
6 7 6 4 3 2 4 3 3 2 0 1 1 2 3 3 4 4 4 4 4 3 4 5 5 4 4 4 4 4 5 5 5 5 5 4 4 4 5 4 4 4 5 4 3 2 3 5 6 6 5 5 7 10 7 4 4 4 4 4 5 6 6
9 7 8 8 7 6 4 4 2 1 1 1 1 1 2 2 3 4 3 4 4 4 5 4 3 3 3 3 4 4 4 4 4 5 5 6 6 5 5 5 4 4 3 3 4 5 6 6 7 9 7 5 6 6 7 6 6 6 6 6 6 7 7
8 8 8 7 6 7 6 4 4 4 2 1 1 1 1 2 3 4 4 4 4 4 4 5 4 4 4 4 4 4 5 5 4 4 5 4 4 5 4 4 4 5 4 5 5 5 5 5 6 9 8 5 8 9 6 3 4 2 4 6 6 6 6
8 8 7 7 7 6 6 7 7 6 6 5 4 4 4 3 3 3 4 3 2 3 4 4 4 4 4 5 5 5 5 4 4 4 4 4 4 4 3 4 5 5 5 5 6 5 6 7 6 5 5 5 5 8 5 3 4 5 4 4 5 6 6
9 8 8 7 7 6 5 5 5 4 5 5 5 3 3 3 4 3 3 3 2 3 3 3 3 4 4 4 4 4 4 4 4 5 5 5 5 5 4 4 4 4 5 5 5 6 6 7 8 7 7 9 7 6 7 4 4 5 10 5 2 4 6
8 8 7 5 6 7 7 7 7 5 6 4 2 2 2 3 4 4 3 3 3 3 3 3 4 4 3 4 3 3 3 2 3 4 3 3 5 4 4 4 4 4 4 5 5 5 6 6 7 8 8 8 9 10 5 6 4 5 5 5 3 5 7
9 10 10 9 8 6 6 7 7 6 4 4 4 3 4 2 3 3 3 3 3 3 3 3 3 4 3 3 3 3 2 1 2 3 2 3 3 3 4 4 4 4 4 4 4 5 5 6 6 6 7 9 9 9 8 6 8 7 3 4 4 4 5
10 10 9 9 7 7 5 4 4 4 5 5 5 4 4 4 3 3 4 3 3 3 3 3 3 3 2 3 3 3 1 1 2 1 1 1 2 2 2 4 3 4 3 3 4 4 4 5 5 6 6 7 8 10 8 10 10 5 7 4 5 5 2
7 8 8 7 8 8 8 6 6 6 4 4 5 5 5 4 4 3 3 3 2 3 2 2 2 1 2 3 3 3 3 3 4 4 2 1 1 2 3 3 3 3 3 3 3 3 3 4 5 5 5 5 7 8 11 10 11 6 3 9 4 5 5
7 7 8 8 8 8 8 7 6 5 6 5 5 5 5 4 4 4 3 3 2 1 1 1 2 3 3 4 4 5 4 4 4 4 4 3 3 3 3 4 3 3 3 3 4 4 3 3 3 4 4 5 5 6 8 10 11 12 8 7 9 6 5
8 7 7 7 9 8 7 7 7 7 5 5 5 5 5 4 4 4 4 3 3 1 0 1 3 3 3 3 3 3 4 4 4 5 4 5 4 4 5 4 4 3 3 4 4 4 4 3 3 3 3 4 5 5 5 7 10 11 10 6 6 7 7
8 7 7 7 7 7 7 7 6 6 7 6 6 6 5 4 4 4 4 3 1 1 1 1 1 2 2 2 3 2 3 3 4 4 4 5 5 5 5 6 5 4 4 4 4 4 3 4 3 5 5 5 5 5 3 6 8 9 12 10 7 6 5
8 8 8 6 6 6 6 5 5 8 6 6 4 6 6 5 5 4 4 3 3 2 1 0 1 1 0 1 2 3 3 3 4 4 4 5 5 5 6 5 6 4 4 6 6 5 4 4 4 4 5 4 6 6 5 5 7 9 10 11 8 8 6
9 9 9 7 6 5 5 5 4 5 5 5 6 4 5 6 5 5 4 4 3 3 2 1 0 0 1 1 2 3 4 4 4 5 5 5 5 4 4 5 5 6 6 7 7 6 5 4 5 5 5 4 5 7 6 5 6 7 9 11 10 6 7
7 7 7 7 7 6 5 5 4 5 5 4 4 5 4 4 5 5 6 5 4 3 2 2 1 1 2 2 2 3 4 4 4 5 5 6 6 5 5 6 7 6 6 8 8 8 7 6 6 6 6 6 6 6 6 5 6 6 8 10 11 8 7
3 5 7 8 9 8 7 6 6 4 6 6 4 4 5 4 5 5 5 5 4 3 3 3 3 3 3 3 2 3 3 4 4 4 5 5 6 6 6 7 7 6 7 7 8 8 8 8 8 8 7 7 6 5 6 6 5 7 8 9 9 11 7
12 9 9 9 9 8 8 7 7 6 5 7 6 5 4 5 4 6 5 4 4 4 3 3 3 3 3 2 2 3 4 4 4 4 4 5 5 5 6 6 6 6 6 6 7 8 8 8 8 8 8 8 7 6 6 6 6 7 7 9 9 8 8
13 12 10 10 10 10 10 8 7 7 7 7 7 7 6 5 4 4 5 4 4 4 3 3 3 2 2 2 3 4 4 4 5 5 5 5 5 5 5 6 6 7 7 8 8 8 7 8 7 8 7 7 8 8 8 7 6 6 7 8 9 9 7
11 14 14 12 11 11 10 9 8 8 7 7 6 7 5 6 6 4 4 4 3 1 2 1 1 1 3 4 4 5 5 6 6 7 6 6 6 6 6 6 6 6 8 11 13 12 11 10 8 9 9 7 9 9 9 8 8 7 7 7 9 8 9
11 11 12 12 12 12 11 10 9 8 8 8 7 6 6 5 6 5 5 4 3 3 1 0 2 5 6 4 5 5 6 6 7 7 8 8 7 7 7 6 7 12 13 14 13 14 14 13 12 10 9 8 9 9 9 9 9 8 8 9 9 8 10
11 11 12 12 11 12 12 11 10 9 9 8 8 6 6 5 5 5 6 4 3 1 0 1 4 6 7 9 6 5 6 7 7 8 8 8 8 8 7 7 7 9 11 11 11 13 13 13 13 12 13 13 12 10 10 11 10 8 9 9 8 8 9
8 8 11 13 13 12 12 12 11 10 9 8 7 7 7 6 6 5 5 4 2 1 0 3 5 6 8 9 8 6 5 6 6 7 7 8 8 8 8 8 7 6 7 8 8 9 11 14 14 14 14 15 15 16 14 13 13 11 10 10 10 10 9
7 10 11 11 10 11 11 11 11 10 9 7 7 8 7 7 6 4 5 4 2 1 0 3 6 7 8 9 10 8 5 5 7 7 8 9 9 9 9 9 9 7 7 12 11 10 9 9 12 14 14 15 16 16 16 17 17 14 12 12 12 13 11
12 11 10 8 8 9 10 10 9 7 7 7 7 7 6 7 6 5 5 5 3 1 0 4 6 8 9 10 10 9 5 6 6 7 8 9 9 10 10 10 10 9 7 8 8 9 8 8 8 9 9 10 10 12 14 16 16 18 16 14 13 14 13
10 13 11 11 10 9 10 9 9 7 8 9 9 8 8 7 5 5 5 4 3 1 1 6 7 9 9 10 11 8 5 6 6 7 8 9 10 10 10 10 10 11 10 9 8 9 9 8 8 9 10 11 11 11 11 11 11 11 11 10 11 13 13
1 1 6 7 9 7 7 9 9 7 6 6 5 6 4 6 6 5 5 4 3 1 2 7 8 9 10 10 11 6 5 6 7 8 9 9 9 9 9 10 10 11 11 10 10 14 13 10 11 12 13 12 11 11 12 12 14 15 15 14 13 12 9
7 8 12 11 9 7 7 6 7 6 8 7 7 7 7 5 6 6 5 4 4 2 3 7 8 9 9 10 7 5 5 6 7 8 9 9 9 9 9 9 10 10 11 11 12 14 14 13 11 12 12 13 11 11 12 8 12 17 19 22 23 24 25
13 9 7 7 6 6 6 5 6 6 9 8 7 7 6 5 4 5 6 6 5 3 4 6 8 8 9 10 8 6 6 7 8 9 10 9 8 9 9 18 17 13 12 12 13 13 12 10 11 12 12 13 14 13 12 8 9 11 16 20 23 23 22
13 14 13 11 8 8 7 9 7 6 7 7 7 6 5 6 4 4 5 5 7 5 4 5 7 8 9 10 8 5 6 7 9 10 9 10 8 9 10 11 18 17 15 15 18 17 17 13 13 12 12 12 13 13 10 7 11 11 10 12 13 13 14
8 12 11 9 7 8 7 7 7 7 5 6 6 6 5 5 6 7 6 4 5 4 4 4 4 9 9 10 11 8 6 7 10 11 10 10 11 9 9 10 12 15 18 19 19 19 18 18 15 14 12 13 14 15 7 9 11 10 12 12 12 10 12
12 12 14 10 8 8 8 8 7 6 5 3 4 4 4 4 5 6 5 4 4 4 3 4 5 9 10 10 12 10 6 8 9 10 10 10 10 10 9 8 8 11 16 18 19 20 21 21 19 17 14 13 12 11 11 12 13 15 13 12 13 14 12
12 11 10 10 10 8 7 7 7 6 6 5 5 4 4 4 5 4 4 3 3 4 5 6 4 7 10 11 12 13 9 8 10 11 12 10 10 10 10 9 8 11 16 17 18 19 20 20 21 17 17 18 19 18 15 13 11 11 12 12 11 11 11
11 8 9 10 10 8 6 6 4 5 6 4 4 4 4 4 4 4 4 6 4 4 5 4 7 7 10 13 14 14 15 13 15 13 12 13 11 11 10 11 13 19 18 19 19 19 20 22 20 18 23 23 23 23 20 14 11 11 10 12 12 12 12
11 10 10 7 7 7 7 4 4 4 4 5 6 4 4 3 3 3 5 6 7 6 4 4 7 10 10 13 15 16 16 17 17 13 13 12 11 11 11 11 13 19 21 23 24 24 23 23 19 23 24 25 23 21 15 12 11 12 11 12 12 12 12
Wind_Direction
169 188 197 197 168 130 111 108 34 20 6 37 83 61 84 95 90 73 71 66 59 45 54 50 50 33 44 29 39 40 43 42 35 38 12 358 18 343 21 210 225 229 236 241 208 332 300 307 304 324 310 297 258 235 229 236 229 215 211 214 220 218 215
162 165 162 144 147 137 122 94 82 31 30 29 68 105 86 88 89 92 74 66 62 54 56 52 45 44 42 36 27 29 29 25 33 27 32 18 18 8 355 9 319 297 304 258 227 207 238 274 280 277 290 320 330 268 253 258 255 233 224 217 213 217 216
148 127 138 148 163 152 158 162 112 88 50 65 49 79 91 85 88 80 78 80 83 78 68 63 53 46 38 40 36 38 33 38 22 31 37 22 19 2 22 354 353 343 335 328 300 280 248 226 256 273 297 311 305 295 326 296 254 245 249 241 229 220 217
164 149 141 155 156 149 183 194 162 183 149 132 37 68 86 102 97 92 98 97 87 79 75 68 60 64 53 50 35 36 39 42 28 27 28 27 17 16 12 13 3 348 334 315 301 290 294 290 295 272 269 260 262 288 277 258 264 265 249 244 239 229 221
162 164 170 174 180 180 188 189 199 163 187 89 53 69 69 90 93 83 80 75 71 76 78 93 84 75 66 54 41 41 35 37 39 42 38 28 21 18 14 2 353 332 318 321 329 317 310 291 284 286 277 285 283 253 281 296 270 255 251 236 230 229 225
168 173 179 176 178 177 181 170 160 196 212 165 217 148 167 114 99 81 68 71 62 59 64 60 55 52 48 49 47 41 35 36 27 37 42 31 36 33 358 352 354 353 346 334 323 319 302 286 286 293 286 278 276 282 280 283 290 267 223 240 236 235 236
174 177 182 179 182 182 178 175 175 185 187 197 190 197 187 151 102 115 111 107 114 103 90 82 63 52 48 48 40 35 32 21 27 33 30 20 31 26 18 14 3 354 353 350 344 333 324 313 293 287 307 297 276 277 282 263 253 276 286 240 228 235 240
173 179 186 184 175 177 190 177 183 177 181 197 196 204 152 133 128 123 131 132 127 92 85 76 87 83 72 63 50 38 29 16 29 28 23 20 17 10 16 15 1 7 356 354 355 352 344 335 318 297 280 292 288 272 277 267 296 246 262 283 261 260 245
176 174 179 182 182 181 179 180 184 186 194 181 187 147 163 143 136 124 102 102 85 70 57 64 69 73 79 88 85 70 47 0 30 30 16 21 8 1 4 4 20 3 352 358 356 353 351 340 338 332 313 288 285 289 286 289 259 260 237 259 289 243 250
172 178 184 185 182 186 182 186 177 191 176 164 171 160 148 133 133 130 121 103 88 85 72 73 74 67 63 55 45 44 56 24 71 26 7 22 357 351 356 3 357 348 345 350 351 350 342 340 337 332 330 323 308 281 285 283 283 286 267 194 247 275 231
183 185 179 181 176 172 187 186 166 150 184 179 160 154 143 143 153 135 129 118 107 100 112 100 90 88 77 56 39 9 0 49 41 28 3 4 338 339 349 337 340 337 334 345 341 330 332 334 329 331 331 325 323 307 284 273 276 247 278 242 218 257 281
190 182 182 174 166 174 179 179 176 182 150 146 142 140 142 145 137 121 119 105 90 90 80 81 80 78 56 22 0 348 335 355 349 333 315 325 299 334 329 322 321 318 317 318 314 315 316 324 318 320 320 320 317 315 311 307 293 279 216 278 250 242 247
185 180 179 170 175 179 179 172 168 160 173 151 146 145 145 146 139 119 102 111 94 65 38 11 23 25 26 19 5 351 332 346 338 324 316 319 318 321 315 313 309 307 304 308 309 307 305 295 299 308 305 306 302 302 308 304 292 293 292 278 280 272 264
183 179 174 178 175 178 173 170 172 170 144 153 144 144 146 142 131 129 126 123 130 138 69 11 19 40 34 9 349 340 328 335 333 321 322 320 323 319 315 309 305 298 299 298 293 298 298 301 306 295 293 292 290 295 299 304 301 299 295 278 260 275 265
170 166 169 175 175 171 167 169 163 147 157 160 150 146 143 137 131 128 123 125 104 67 61 49 29 47 15 0 332 329 329 322 321 311 321 316 318 315 312 310 310 313 307 295 294 291 286 293 293 305 308 302 294 289 287 295 298 299 298 306 303 290 293
165 167 164 170 170 168 164 156 155 152 151 149 146 143 144 140 133 121 111 104 95 96 106 85 29 80 87 324 306 313 305 307 295 294 297 294 296 303 309 307 309 313 311 308 304 294 290 284 281 280 288 298 300 299 299 292 294 296 302 297 303 298 288
164 164 164 163 161 161 153 148 147 142 141 137 138 132 130 131 123 118 115 113 117 120 102 74 24 234 278 272 288 287 301 301 295 288 286 284 283 279 277 295 303 309 312 307 306 306 297 285 283 282 286 286 289 295 295 290 284 288 292 298 303 305 300
167 162 153 148 149 146 143 136 138 136 128 127 127 119 105 117 115 121 130 133 122 125 158 177 199 282 288 264 257 277 285 289 286 288 284 283 277 268 274 280 284 290 295 297 299 300 303 302 297 295 292 291 285 286 292 290 288 292 304 299 301 305 303
180 162 151 149 148 147 143 143 138 137 136 127 112 109 124 120 130 131 129 134 143 162 175 185 195 226 238 245 250 260 265 269 277 279 284 283 278 275 277 278 279 275 272 275 281 286 287 286 291 288 287 284 282 281 284 291 291 294 291 288 292 298 302
163 168 164 156 148 145 146 148 143 140 135 131 129 123 128 126 131 130 136 133 152 170 182 191 206 220 230 236 255 266 274 273 273 274 272 275 281 294 296 298 295 291 287 282 281 282 285 285 280 280 279 283 279 277 280 285 288 288 288 289 287 279 290
160 163 161 155 153 150 146 145 140 136 134 133 137 143 145 138 137 124 144 148 165 164 169 185 218 233 245 259 261 264 265 273 273 273 274 273 275 275 278 284 289 291 290 291 290 291 293 293 294 289 290 293 293 289 283 282 283 283 283 286 284 291 286
172 158 154 153 151 149 146 142 139 139 139 139 143 147 142 135 133 129 141 145 141 120 149 222 264 293 297 294 279 279 282 279 279 278 275 271 268 268 269 268 271 269 273 278 282 285 284 284 289 290 287 285 285 284 283 278 275 276 275 275 281 282 283
171 159 152 155 155 148 143 143 142 142 143 145 145 141 138 145 147 146 124 118 144 153 171 222 276 296 300 294 295 294 290 285 282 279 280 279 274 267 263 262 260 265 271 273 275 276 278 279 276 275 283 287 284 282 278 278 273 268 269 269 266 272 275
162 160 158 155 153 151 148 145 144 142 144 148 147 146 139 130 125 136 137 129 111 105 45 303 315 314 314 311 308 299 291 289 283 280 277 275 276 273 267 258 257 259 263 266 266 265 268 270 271 274 277 276 276 277 287 281 272 266 267 263 262 257 259
155 170 165 163 160 156 148 144 144 147 148 148 142 131 127 139 144 137 124 119 109 101 306 282 310 319 316 313 308 302 297 293 293 287 281 278 275 274 272 268 260 256 256 256 260 263 262 261 263 266 268 272 274 273 265 266 276 274 261 265 265 259 261
192 184 183 171 157 147 145 144 142 142 154 148 132 133 144 138 142 140 126 125 128 168 231 292 309 306 298 298 298 300 294 290 291 291 287 283 279 277 275 273 271 258 254 258 262 266 262 262 262 262 264 267 269 268 269 266 256 253 267 265 265 265 252
181 185 168 156 146 146 140 140 143 139 124 125 132 135 142 142 145 140 138 143 158 163 236 282 284 285 289 289 292 296 289 287 284 283 285 282 280 278 275 275 276 274 263 258 257 257 255 256 258 263 264 264 265 265 264 263 266 263 254 255 257 259 260
197 179 160 154 150 148 142 128 127 133 140 146 146 150 154 149 151 146 148 142 141 181 226 265 272 277 282 286 288 295 282 279 280 281 279 277 274 274 274 273 272 273 273 264 250 243 247 247 254 260 263 263 261 265 264 263 263 268 268 256 251 251 259
23 328 108 123 127 133 131 134 135 133 128 132 134 138 147 141 149 154 147 141 156 198 255 258 267 273 279 286 293 294 285 279 282 281 279 277 276 275 274 272 274 273 271 267 257 247 247 254 259 262 264 264 263 258 257 256 259 261 264 271 274 274 270
131 169 149 136 131 127 117 117 122 130 131 145 152 165 165 172 163 147 156 168 168 207 246 261 263 273 283 292 298 285 281 282 280 281 276 276 277 277 276 275 272 273 269 267 263 257 254 250 258 260 263 266 264 263 262 260 254 255 254 256 260 262 264
141 132 94 87 98 102 101 107 134 146 145 159 172 180 174 158 152 155 165 179 183 194 237 255 265 280 289 293 292 288 284 286 285 281 283 276 277 277 275 280 282 281 279 274 272 265 259 255 263 264 266 268 267 264 265 264 267 263 258 254 252 252 255
153 142 134 138 133 123 144 152 167 159 164 168 175 171 165 155 163 187 192 184 200 204 229 258 274 283 288 292 295 289 289 290 290 287 286 286 276 275 277 279 281 282 281 280 279 276 273 270 270 269 268 267 264 263 262 265 265 271 270 270 265 259 256
126 118 110 109 139 158 160 140 159 170 174 169 160 175 165 158 169 196 203 198 218 216 221 256 267 276 285 289 291 293 290 293 290 290 288 286 289 280 270 273 269 266 270 274 275 274 273 268 268 271 268 263 265 266 274 266 261 264 268 265 271 266 260
143 130 131 149 148 144 150 156 161 159 164 160 138 146 165 176 186 201 204 212 225 250 220 241 266 273 281 287 289 292 288 280 281 285 288 287 284 284 280 269 267 264 265 267 267 268 268 267 264 266 260 258 257 269 274 269 268 264 264 263 258 260 261
128 121 125 133 140 153 169 154 163 171 153 160 161 166 173 185 191 222 251 252 244 254 258 250 263 276 280 285 286 286 288 281 280 288 287 282 281 279 278 278 273 271 269 269 269 269 268 266 265 264 262 262 263 260 259 259 261 258 258 261 258 255 251
113 116 136 142 148 157 156 161 160 146 152 149 150 166 184 191 195 236 271 275 262 260 266 277 279 284 285 287 290 291 286 286 283 282 282 283 280 279 275 275 280 283 279 275 272 269 267 265 265 262 263 261 260 259 258 258 254 255 255 259 259 256 249
123 135 137 151 148 156 166 151 129 139 137 146 154 174 207 188 201 242 260 281 289 283 280 275 283 282 287 289 293 292 289 284 281 277 278 279 283 281 284 282 284 285 283 280 276 273 270 266 263 262 260 259 258 256 254 251 247 246 248 247 247 249 249